Regional Weather Roundup
Issued by NWS Mobile, AL

Home | Current Version | Previous Version | Text Only | Print | Product List | Glossary On
Versions: 1 2 3 4 5 6 7 8 9 10 11 12 13 14 15 16 17 18 19 20 21 22 23 24 25 26 27 28
000
ASUS44 KMOB 180812
RWRMOB
REGIONAL WEATHER ROUNDUP
NATIONAL WEATHER SERVICE MOBILE AL
200 AM CST SAT NOV 18 2017

NOTE: "FAIR" INDICATES FEW OR NO CLOUDS BELOW 12,000 FEET WITH NO
      SIGNIFICANT WEATHER AND/OR OBSTRUCTIONS TO VISIBILITY.

  * THESE STATIONS ARE PART OF THE UNIVERSITY OF SOUTH ALABAMA
    MESONET AND ARE NOT UNDER NWS OR FAA QUALITY CONTROL.

ALZ061>064-180900-
COASTAL ALABAMA

CITY           SKY/WX    TMP DP  RH WIND       PRES   REMARKS
MOBILE REG APT PTCLDY    62  60  93 SE5       29.98S FOG
BROOKLEY FIELD MOCLDY    67  66  97 SE6       29.99S
USA CAMPUS*    NOT AVBL
DOG RIVER*     NOT AVBL


CITY           SKY/WX    TMP DP  RH WIND       PRES   REMARKS
GULF SHORES    MOCLDY    68  65  88 S8        29.98F

$$

ALZ051>060-180900-
INTERIOR SOUTHWEST AND SOUTH CENTRAL ALABAMA

CITY           SKY/WX    TMP DP  RH WIND       PRES   REMARKS
GREENVILLE     CLEAR     53  49  86 S3        30.00F
EVERGREEN      CLOUDY    51  50  96 CALM      30.00F FOG
ATMORE*        NOT AVBL
ANDALUSIA/OPP  CLEAR     53  49  86 E3        30.01F
ANDALUSIA*       N/A     52  52 100 SE3       30.00F
FLORALA APT    CLEAR     54  51  90 SE3       30.03F
FLORALA*         N/A     54  54 100 NE3       30.70F

$$

FLZ001>006-180900-
WESTERN FLORIDA PANHANDLE

CITY           SKY/WX    TMP DP  RH WIND       PRES   REMARKS
PENSACOLA      CLEAR     64  59  83 SE6       29.99F
NAS PENSACOLA  CLEAR     68  61  78 S9        29.98F
MILTON         CLEAR     53  53 100 E3        30.00F FOG
WHTNG S FIELD  CLEAR     59  53  80 SE3       30.00F


CITY           SKY/WX    TMP DP  RH WIND       PRES   REMARKS
JAY*             N/A     57  55  94 SE6       30.00F
DUKE FIELD     CLEAR     53  52  94 CALM      30.00F
CRESTVIEW      PTCLDY    49  47  93 CALM      30.02F FOG
VALPARAISO     PTCLDY    55  53  92 CALM      30.00F
DESTIN         CLEAR     71  56  58 S6        30.01F

$$

MSZ076-079-180900-
INTERIOR SOUTHEAST MISSISSIPPI

CITY           SKY/WX    TMP DP  RH WIND       PRES   REMARKS
LEAKESVILLE*   NOT AVBL
AGRICOLA*      NOT AVBL

$$

MARINE OBSERVATIONS

STATION/POSITION TIME  TEMP    WIND        PRES    WAVE
                       AIR SEA DIR/SP/G            HT/PER
                 (UTC) (F)     (DEG/KT/KT) (MB)    (FT/S)
KATRINA CUT      0730   71     210/ 13     1015.2F
CEDAR POINT      0730   71     200/ 10     1014.6F
E DAUPHIN ISLAND 0700   71     160/ 11/ 12 1014.8F
MIDDLE BAY LIGHT 0730   68     150/ 11     1015.2S
MEAHER PARK      0730   67     130/  9     1014.9F
WEEKS BAY        0645   58                 1015.0F
12 S ORANGE BCH  NOT AVBL
64 S DAUPHIN ISL 0800   75 78  170/ 14/ 17 1015.3
67 S FORT MORGAN 0730   73     200/ 14     1015.6F

$$

SELECTED LOCATIONS ACROSS THE REGION

CITY           SKY/WX    TMP DP  RH WIND       PRES   REMARKS
NEW ORLEANS    PTCLDY    67  67 100 S8        29.94F
GULFPORT       CLEAR     68  64  87 S5        29.95F
PASCAGOULA AP  MOCLDY    55  53  93 CALM      29.97S
PASCAGOULA*      N/A     45  45 100 CALM        N/A
HATTIESBURG    CLEAR     62  62 100 SE5       29.95F
LAUREL         FOG       58  58 100 S5        29.95F VSB 1/2
MERIDIAN       CLOUDY    63  62  97 S14       29.93F
JACKSON        MOCLDY    65  61  87 S13       29.90F
MONTGOMERY     CLEAR     50  43  77 E5        30.01F
TROY           CLEAR     48  46  93 CALM      30.03S
ASHFORD*         N/A     52  52 100 SE3       30.00F
DOTHAN         CLEAR     47  45  93 CALM      30.06F
PANAMA CITY    CLEAR     53  51  93 CALM      30.01F

$$





USA.gov is the U.S. government's official web portal to all federal, state and local government web resources and services.